FENGYUN 1C DEB

Satellite information

Favourite Embed

Satellite Type and Status

DEBRISIN ORBIT

Key statistics

Satellite FENGYUN 1C DEB at a glance.

Uptime

9715

Days in orbit

Revolutions

≈ 14.5

Per day

Orbit

SSO

Sun Synchronous Orbit

Inclination

98.9

Latest

Satellite identification and parameters

Extended collection of information and parameters for FENGYUN 1C DEB.

Object identification

Identified? True

Debris? True

Object name: FENGYUN 1C DEB

International designator: 1999-025DB

Object number (NORAD): 29809

Object ID (CCSDS): 29809

Country: PEOPLES REPUBLIC OF CHINA (PRC)

Current information (Y/N): Y

RCS size: SMALL

Orbital parameters

Period: 99.544 minutes

Inclination: 98.86 deg

SMA: 7114.929 km

Apoapsis: 819.366 km

Periapsis: 654.221 km

RAAN: 311.2256 deg

Eccentricy: 0.01160552

Argument of periapsis: 347.3057 deg

Mean anomaly: 185.8007 deg

Mean motion: 14.46594938 rev/day

Mean motion (dot): 0.00001956 rev/day2

B* drag term: 0.00051255401 1/REarth

Two-line elements (TLE)

Creation date: Dec. 14, 2025, 3:07 a.m.

Reference frame: TEME

Reference center: EARTH

Epoch: Dec. 13, 2025, 3:26 p.m. UTC

TLE line 0: 0 FENGYUN 1C DEB

TLE line 1: 1 29809U 99025DB 25347.64331385 .00001956 00000-0 51255-3 0 9999

TLE line 2: 2 29809 98.8600 311.2256 0116055 347.3057 185.8007 14.46594938994800

Live tracking on map

Real-time ground track for satellite FENGYUN 1C DEB.

In-orbit conjunctions

A list of the most updated potential collisions computed for object FENGYUN 1C DEB.

Target Orbit TCA Probability of collision Miss distance Type
COSMOS 2251 DEB LEO 2025-01-02 22:19:17 0.0001030922 196.0 (m) DEBRIS
NOAA 16 DEB SSO 2024-11-09 15:54:39 0.0004828174 309.0 (m) DEBRIS

Associated space launch

Chinese polar orbiting meteorological satellite

FENGYUN 1C DEB was lifted into orbit during the mission ‘Long March 4B | Feng Yun 1C’, on board a Long March 4B space rocket.

The launch took place on May 10, 1999, 1:33 a.m. from Launch Complex 7.

For more information about the launch, click the button.

Launch to space Long March 4B | Feng Yun 1C
Long March 4B | Feng Yun 1C

Agency: N/A

Status: Launch Successful

Launch date: May 10, 1999, 1:33 a.m. UTC

Rocket: Long March 4B

Launch pad: Launch Complex 7

Location: Taiyuan Satellite Launch Center, People's Republic of China

...

Latest news about this satellite

There are no fresh news available about this satellite. Check back as we update our databases every day.


Newsletter sign-up

Weekly statistics, charts and insights to help you stay on top of the space industry.